Location: Casco Volunteer Fire Department
(44.5576°N, 87.6146°W)
Time: 05:30:16
(UTC+00:00)

Cosmos 1821 Rocket - Pass Details

Date: 22 January 2026
Orbit: 943 x 1004 km, 82.9° (Epoch: 10 February)

Event Time Altitude Azimuth Distance (km) Brightness Sun altitude
Rises 12:13:05 0° 187° (S) 3,711 7.2 -11.7°
Reaches altitude 10° 12:15:37 10° 188° (S) 2,762 6.5 -11.3°
Maximum altitude 12:21:59 86° 277° (W) 1,001 4.0 -10.2°
Drops below altitude 10° 12:28:19 10° 7° (N) 2,746 6.3 -9.1°
Sets 12:30:49 0° 8° (N) 3,690 6.9 -8.7°
